This is the latest recevied weather packets stored in our database for station/object n3uvr. If no packets are shown the sender has not sent any weather packets the latest 10 day(s).
| Time | Temp. | Humidity | Pressure | Rain* | Wind** | Luminosity | Snow |
|---|---|---|---|---|---|---|---|
| 1777560109 | 9.44° C | 88% | 1006.6 hPa | 0 mm | - | 91 W/m² | - |
| 1777558901 | 9.44° C | 87% | 1006.5 hPa | 0 mm | - | 77 W/m² | - |
| 1777557111 | 9.44° C | 86% | 1006.6 hPa | 0.25 mm | - | 93 W/m² | - |
| 1777556486 | 9.44° C | 85% | 1006.6 hPa | 0.25 mm | - | 83 W/m² | - |
| 1777555886 | 9.44° C | 85% | 1006.6 hPa | 0.25 mm | - | 98 W/m² | - |
| 1777555306 | 9.44° C | 86% | 1006.6 hPa | 0.25 mm | - | 46 W/m² | - |
| 1777554736 | 9.44° C | 85% | 1006.6 hPa | 0 mm | - | 42 W/m² | - |
| 1777553533 | 9.44° C | 86% | 1006.5 hPa | 0 mm | - | 53 W/m² | - |
| 1777552919 | 9.44° C | 85% | 1006.6 hPa | 0 mm | - | 53 W/m² | - |
| 1777552306 | 9.44° C | 85% | 1006.7 hPa | 0 mm | - | 44 W/m² | - |
| 1777551077 | 8.89° C | 85% | 1006.6 hPa | 0 mm | - | 33 W/m² | - |
| 1777550475 | 8.89° C | 85% | 1006.6 hPa | 0.25 mm | - | 16 W/m² | - |
| 1777546888 | 8.89° C | 86% | 1006 hPa | 0.25 mm | - | 0 W/m² | - |
| 1777544462 | 8.89° C | 86% | 1005.6 hPa | 0 mm | - | 0 W/m² | - |
| 1777543855 | 8.89° C | 86% | 1005.4 hPa | 0 mm | - | 0 W/m² | - |
| 1777542641 | 9.44° C | 87% | 1005.2 hPa | 0.25 mm | - | 0 W/m² | - |
| 1777542037 | 9.44° C | 87% | 1005.1 hPa | 0.25 mm | - | 0 W/m² | - |
| 1777540881 | 9.44° C | 87% | 1005.2 hPa | 0.25 mm | - | 0 W/m² | - |
| 1777538446 | 9.44° C | 87% | 1005.4 hPa | 0 mm | - | 0 W/m² | - |
| 1777537863 | 9.44° C | 87% | 1005.4 hPa | 0 mm | - | 0 W/m² | - |
| 1777537269 | 9.44° C | 87% | 1005.4 hPa | 0 mm | - | 0 W/m² | - |
| 1777536664 | 9.44° C | 88% | 1005.4 hPa | 0 mm | - | 0 W/m² | - |
| 1777536072 | 9.44° C | 88% | 1005.3 hPa | 0 mm | - | 0 W/m² | - |
| 1777533647 | 9.44° C | 87% | 1005.6 hPa | 0 mm | - | 0 W/m² | - |
| 1777533568 | 9.44° C | 88% | 1005.4 hPa | 0 mm | - | 0 W/m² | - |
* Rain latest hour (hover to see other rain measurements)
** Current wind speed in m/s (hover to see current wind gust speed)